When you browse on this site, cookies collect data to enhance your experience and personalize the content and advertising you see.
Visit our Privacy Policy to learn more. By continuing to use the site, you agree to this use of cookies and data.
  • In Hungary
  • List of Countries
  • For 7 days
  • Water Temperature
  • Satellite Maps
  • Weather Map
  • News
  • Weather Widgets
  • user-avatar
    Login

    Hourly Weather Trzebinia

    Today, 18 November, Sunday

    Time Temperature Precipitation Wind Pressure Humidity
    00:00 -3°C° 0 mm 2 mps 742 mmHg 58%
    01:00 -3°C° 0 mm 2 mps 742 mmHg 61%
    02:00 -3°C° 0 mm 2 mps 741 mmHg 62%
    03:00 -3°C° 0 mm 2 mps 741 mmHg 62%
    04:00 -3°C° 0 mm 2 mps 740 mmHg 63%
    05:00 -1°C° 0 mm 1 mps 740 mmHg 64%
    06:00 -1°C° 0 mm 1 mps 739 mmHg 64%
    07:00 -2°C° 0 mm 1 mps 739 mmHg 63%
    08:00 -1°C° 0 mm 1 mps 739 mmHg 58%
    09:00 +1°C° 0 mm 1 mps 739 mmHg 54%
    10:00 +1°C° 0 mm 2 mps 738 mmHg 50%
    11:00 +1°C° 0 mm 2 mps 738 mmHg 48%
    12:00 +2°C° 0 mm 2 mps 737 mmHg 45%
    13:00 +3°C° 0 mm 2 mps 737 mmHg 43%
    14:00 +2°C° 0 mm 2 mps 736 mmHg 45%
    15:00 +2°C° 0 mm 1 mps 736 mmHg 48%
    16:00 +1°C° 0 mm 1 mps 735 mmHg 50%
    17:00 +1°C° 0.1 mm 1 mps 735 mmHg 55%
    18:00 +1°C° 0.1 mm 1 mps 734 mmHg 60%
    19:00 0°C° 0.1 mm 1 mps 734 mmHg 65%
    20:00 0°C° 0.1 mm 1 mps 734 mmHg 68%
    21:00 0°C° 0.1 mm 1 mps 734 mmHg 72%
    22:00 -2°C° 0.1 mm 2 mps 733 mmHg 75%
    23:00 -2°C° 0 mm 2 mps 733 mmHg 78%

    Tomorrow, 19 November, Monday

    Time Temperature Precipitation Wind Pressure Humidity
    00:00 -2°C° 0 mm 2 mps 733 mmHg 81%
    01:00 -3°C° 0 mm 2 mps 733 mmHg 84%
    02:00 -3°C° 0.1 mm 2 mps 733 mmHg 85%
    03:00 -3°C° 0.1 mm 2 mps 732 mmHg 86%
    04:00 -3°C° 0.1 mm 2 mps 732 mmHg 87%
    05:00 -4°C° 0 mm 3 mps 732 mmHg 88%
    06:00 -4°C° 0 mm 3 mps 732 mmHg 89%
    07:00 -4°C° 0 mm 3 mps 732 mmHg 89%
    08:00 -2°C° 0 mm 3 mps 732 mmHg 84%
    09:00 -3°C° 0 mm 4 mps 732 mmHg 78%
    10:00 -2°C° 0 mm 4 mps 733 mmHg 72%
    11:00 -1°C° 0 mm 5 mps 732 mmHg 69%
    12:00 -1°C° 0 mm 5 mps 732 mmHg 66%
    13:00 0°C° 0 mm 5 mps 732 mmHg 62%
    14:00 -1°C° 0 mm 5 mps 732 mmHg 65%
    15:00 -2°C° 0 mm 4 mps 732 mmHg 67%
    16:00 -2°C° 0 mm 4 mps 732 mmHg 70%
    17:00 -3°C° 0 mm 4 mps 733 mmHg 72%
    18:00 -3°C° 0 mm 4 mps 733 mmHg 73%
    19:00 -3°C° 0 mm 4 mps 733 mmHg 75%
    20:00 -3°C° 0 mm 4 mps 733 mmHg 76%
    21:00 -4°C° 0 mm 4 mps 733 mmHg 77%
    22:00 -4°C° 0 mm 4 mps 734 mmHg 79%
    23:00 -4°C° 0 mm 4 mps 733 mmHg 79%

    Day after tomorrow, 20 November, Tuesday

    Time Temperature Precipitation Wind Pressure Humidity
    00:00 -4°C° 0 mm 4 mps 733 mmHg 79%
    01:00 -5°C° 0 mm 5 mps 733 mmHg 80%
    02:00 -5°C° 0 mm 5 mps 733 mmHg 81%
    03:00 -5°C° 0 mm 5 mps 733 mmHg 82%
    04:00 -5°C° 0 mm 5 mps 732 mmHg 84%
    05:00 -5°C° 0 mm 5 mps 732 mmHg 83%
    06:00 -5°C° 0 mm 5 mps 732 mmHg 83%
    07:00 -5°C° 0 mm 5 mps 732 mmHg 82%
    08:00 -4°C° 0 mm 6 mps 732 mmHg 77%
    09:00 -4°C° 0 mm 6 mps 731 mmHg 73%
    10:00 -3°C° 0 mm 7 mps 731 mmHg 68%
    11:00 -2°C° 0 mm 7 mps 731 mmHg 67%
    12:00 -1°C° 0 mm 7 mps 730 mmHg 65%
    13:00 -1°C° 0 mm 7 mps 730 mmHg 63%
    14:00 -1°C° 0.2 mm 7 mps 729 mmHg 67%
    15:00 -1°C° 0.2 mm 6 mps 729 mmHg 70%
    16:00 -1°C° 0.2 mm 6 mps 729 mmHg 74%
    17:00 -2°C° 0.6 mm 6 mps 729 mmHg 77%
    18:00 -2°C° 0.6 mm 6 mps 729 mmHg 80%
    19:00 -2°C° 0.6 mm 6 mps 728 mmHg 83%
    20:00 -1°C° 0.3 mm 5 mps 729 mmHg 85%
    21:00 -1°C° 0.3 mm 5 mps 729 mmHg 87%
    22:00 -1°C° 0.3 mm 5 mps 729 mmHg 89%
    23:00 -1°C° 0 mm 4 mps 729 mmHg 89%

    21 November, Wednesday

    Time Temperature Precipitation Wind Pressure Humidity
    00:00 -1°C° 0 mm 4 mps 729 mmHg 89%
    01:00 -1°C° 0 mm 4 mps 729 mmHg 90%
    02:00 -1°C° 0 mm 4 mps 730 mmHg 90%
    03:00 -1°C° 0 mm 4 mps 730 mmHg 90%
    04:00 0°C° 0 mm 3 mps 730 mmHg 91%
    05:00 0°C° 0 mm 3 mps 730 mmHg 91%
    06:00 0°C° 0 mm 3 mps 730 mmHg 91%
    07:00 -1°C° 0 mm 3 mps 730 mmHg 92%
    08:00 -1°C° 0 mm 4 mps 731 mmHg 90%
    09:00 0°C° 0 mm 4 mps 731 mmHg 88%
    10:00 0°C° 0 mm 4 mps 732 mmHg 87%
    11:00 0°C° 0 mm 4 mps 732 mmHg 86%
    12:00 +1°C° 0 mm 4 mps 732 mmHg 85%
    13:00 +1°C° 0 mm 4 mps 732 mmHg 84%
    14:00 0°C° 0 mm 4 mps 732 mmHg 85%
    15:00 0°C° 0 mm 4 mps 732 mmHg 86%
    16:00 0°C° 0 mm 4 mps 732 mmHg 87%
    17:00 -1°C° 0 mm 4 mps 733 mmHg 88%
    18:00 -1°C° 0 mm 4 mps 733 mmHg 88%
    19:00 -1°C° 0 mm 4 mps 733 mmHg 89%
    20:00 -1°C° 0 mm 4 mps 733 mmHg 89%
    21:00 -1°C° 0 mm 5 mps 733 mmHg 89%
    22:00 -1°C° 0 mm 5 mps 734 mmHg 89%
    23:00 -1°C° 0 mm 5 mps 734 mmHg 89%

    22 November, Thursday

    Time Temperature Precipitation Wind Pressure Humidity
    00:00 -1°C° 0 mm 4 mps 734 mmHg 89%
    01:00 -1°C° 0 mm 4 mps 734 mmHg 89%
    02:00 -1°C° 0 mm 4 mps 734 mmHg 89%
    03:00 -1°C° 0 mm 4 mps 734 mmHg 89%
    04:00 -1°C° 0 mm 4 mps 734 mmHg 88%
    05:00 -2°C° 0 mm 4 mps 734 mmHg 88%
    06:00 -2°C° 0 mm 4 mps 734 mmHg 88%
    07:00 -2°C° 0 mm 4 mps 734 mmHg 88%
    08:00 -1°C° 0 mm 4 mps 735 mmHg 87%
    09:00 -1°C° 0 mm 4 mps 735 mmHg 85%
    10:00 0°C° 0 mm 4 mps 735 mmHg 84%
    11:00 0°C° 0 mm 4 mps 735 mmHg 83%
    12:00 +1°C° 0 mm 4 mps 735 mmHg 82%
    13:00 +1°C° 0 mm 4 mps 736 mmHg 81%
    14:00 +1°C° 0 mm 4 mps 736 mmHg 82%
    15:00 0°C° 0 mm 4 mps 736 mmHg 84%
    16:00 0°C° 0 mm 4 mps 736 mmHg 86%
    17:00 -1°C° 0 mm 4 mps 736 mmHg 87%
    18:00 -1°C° 0 mm 4 mps 736 mmHg 88%
    19:00 0°C° 0 mm 3 mps 737 mmHg 89%
    20:00 0°C° 0 mm 3 mps 737 mmHg 89%
    21:00 0°C° 0 mm 3 mps 737 mmHg 90%
    22:00 0°C° 0 mm 3 mps 737 mmHg 90%
    23:00 0°C° 0 mm 3 mps 737 mmHg 90%

    23 November, Friday

    Time Temperature Precipitation Wind Pressure Humidity
    00:00 0°C° 0 mm 3 mps 737 mmHg 90%
    01:00 0°C° 0 mm 3 mps 737 mmHg 91%
    02:00 +1°C° 0 mm 2 mps 737 mmHg 91%
    03:00 +1°C° 0 mm 2 mps 737 mmHg 91%
    04:00 -1°C° 0 mm 2 mps 738 mmHg 92%
    05:00 -1°C° 0 mm 2 mps 738 mmHg 92%
    06:00 -1°C° 0 mm 2 mps 738 mmHg 92%
    07:00 -1°C° 0 mm 2 mps 738 mmHg 93%
    08:00 +1°C° 0 mm 2 mps 738 mmHg 90%
    09:00 +2°C° 0 mm 2 mps 738 mmHg 88%
    10:00 +3°C° 0 mm 2 mps 739 mmHg 85%
    11:00 +5°C° 0 mm 1 mps 738 mmHg 83%
    12:00 +6°C° 0 mm 1 mps 738 mmHg 82%
    13:00 +6°C° 0 mm 1 mps 738 mmHg 80%
    14:00 +6°C° 0 mm 1 mps 738 mmHg 83%
    15:00 +6°C° 0 mm 1 mps 738 mmHg 86%
    16:00 +5°C° 0 mm 1 mps 737 mmHg 89%
    17:00 +5°C° 0 mm 1 mps 737 mmHg 89%
    18:00 +5°C° 0 mm 1 mps 737 mmHg 90%
    19:00 +5°C° 0 mm 1 mps 737 mmHg 91%
    20:00 +5°C° 0 mm 1 mps 737 mmHg 91%
    21:00 +5°C° 0 mm 1 mps 736 mmHg 91%
    22:00 +5°C° 0 mm 1 mps 736 mmHg 92%
    23:00 +5°C° 0 mm 1 mps 736 mmHg 91%
    Show more